Location: Cypress Hills Dark-Sky Preserve - CHICO
(49.6176°N, 110.2634°W)
Time: 16:47:09
(UTC-06:00)

Amateur Radio Satellites - All Passes

Search period start: 25 July 2017 16:17
Search period end: 26 July 2017 16:17
Location: Cypress Hills Dark-Sky Preserve - CHICO, 49.6176°N, 110.2634°W

Satellite Date Start Highest point End Downlink Frequencies (MHz)
Time Altitude Azimuth
BEESAT 2 25 Jul 16:22:03 16:25:08 21° 329° (NNW) 16:28:16 435.950
DOVE 4 25 Jul 16:22:06 16:25:19 17° 56° (NE) 16:28:35 437.250
AO-7 25 Jul 16:23:28 16:31:40 57° 257° (WSW) 16:39:56 .
SO-50 25 Jul 16:23:31 16:27:19 27° 243° (WSW) 16:31:07 436.795
DX 1 25 Jul 16:23:36 16:26:27 17° 302° (WNW) 16:29:18 434.975-435.025
O/OREOS (USA 219) 25 Jul 16:25:07 16:29:36 89° 150° (SSE) 16:34:07 437.305
RS-15 25 Jul 16:28:13 16:40:00 58° 116° (ESE) 16:51:54 29.354- 29.394
PCSat 25 Jul 16:28:19 16:30:35 13° 258° (WSW) 16:32:50 145.827
MOZHAYETS 4 25 Jul 16:32:04 16:36:31 49° 99° (E) 16:40:56
AO-85 25 Jul 16:53:32 16:54:34 11° 347° (NNW) 16:55:37 145.980
HO-68 25 Jul 17:05:15 17:08:40 14° 40° (NE) 17:12:05 435.675
UKube-1 25 Jul 17:06:43 17:07:38 11° 307° (NW) 17:08:33 .
CUBESAT XI-V 25 Jul 17:08:18 17:12:14 26° 93° (E) 17:16:10 437.345
KKS-1 25 Jul 17:10:26 17:13:01 15° 89° (E) 17:15:35 437.445
XW-2C 25 Jul 17:10:27 17:12:06 13° 60° (ENE) 17:13:46 145.795 - 145.815
BEESAT 25 Jul 17:13:18 17:17:59 59° 290° (WNW) 17:22:39 436.000
NUDT-PHONESAT 25 Jul 17:16:40 17:17:39 11° 58° (ENE) 17:18:37 437.300
NO-84 25 Jul 17:21:22 17:25:03 77° 27° (NNE) 17:29:03 435.350 FM
ITUPSAT 1 25 Jul 17:27:02 17:31:35 46° 292° (WNW) 17:36:07 437.325
KAITUO 1B 25 Jul 17:30:31 17:32:43 15° 62° (ENE) 17:34:56 145.475/437.950
LilacSat-2 25 Jul 17:33:00 17:35:55 22° 65° (ENE) 17:38:51 437.200
STARS 25 Jul 17:39:08 17:41:02 12° 87° (E) 17:42:56 437.465
ITAMSAT 1 25 Jul 17:39:32 17:41:57 13° 274° (W) 17:44:21 435.822/435.867
XW-2F 25 Jul 17:46:05 17:49:13 26° 66° (ENE) 17:52:22 145.980 - 146.000
CUTE-I 25 Jul 17:48:16 17:53:09 37° 64° (ENE) 17:58:03 437.470
DOVE 4 25 Jul 17:57:16 18:02:14 89° 248° (WSW) 18:07:30 437.250
YUBILEINY 25 Jul 18:04:38 18:11:17 25° 77° (ENE) 18:17:54 435.215
O/OREOS (USA 219) 25 Jul 18:06:48 18:09:41 17° 317° (NW) 18:12:34 437.305
MOZHAYETS 4 25 Jul 18:09:47 18:13:24 23° 298° (WNW) 18:16:59
XW-2D 25 Jul 18:14:37 18:18:18 56° 73° (ENE) 18:22:00 145.860 - 145.880
AO-7 25 Jul 18:23:17 18:26:22 12° 279° (W) 18:29:27 .
XW-2B 25 Jul 18:24:38 18:28:22 71° 74° (ENE) 18:32:07 145.730 - 145.750
AO-85 25 Jul 18:35:48 18:36:48 11° 13° (NNE) 18:37:50 145.980
RS-15 25 Jul 18:40:28 18:52:41 62° 323° (NW) 19:04:53 29.354- 29.394
XW-2C 25 Jul 18:42:02 18:45:47 72° 258° (WSW) 18:49:32 145.795 - 145.815
CUBESAT XI-V 25 Jul 18:45:21 18:49:46 43° 292° (WNW) 18:54:10 437.345
KKS-1 25 Jul 18:45:35 18:50:05 72° 287° (WNW) 18:54:32 437.445
NUDT-PHONESAT 25 Jul 18:47:16 18:50:57 83° 257° (WSW) 18:54:39 437.300
HO-68 25 Jul 18:47:58 18:54:48 49° 62° (ENE) 19:01:38 435.675
BEESAT 25 Jul 18:54:00 18:54:48 10° 309° (NW) 18:55:37 436.000
NO-84 25 Jul 18:59:07 19:02:19 25° 224° (SW) 19:05:42 435.350 FM
BEESAT 3 25 Jul 19:00:59 19:02:40 12° 18° (NNE) 19:04:21 437.485
KAITUO 1B 25 Jul 19:02:45 19:06:21 53° 260° (W) 19:09:59 145.475/437.950
CUBEBUG 2 25 Jul 19:03:07 19:06:49 24° 63° (ENE) 19:10:28 437.445
LilacSat-2 25 Jul 19:06:32 19:10:01 36° 263° (W) 19:13:33 437.200
STARS 25 Jul 19:13:32 19:17:59 83° 286° (WNW) 19:22:23 437.465
CUTE 1.7 + AOD 2 25 Jul 19:16:15 19:20:17 48° 71° (ENE) 19:24:21 437.475
AO-73 25 Jul 19:18:20 19:19:39 11° 56° (NE) 19:20:58 145.935
XW-2F 25 Jul 19:20:01 19:23:17 29° 264° (W) 19:26:35 145.980 - 146.000
SEEDS 25 Jul 19:27:19 19:31:13 41° 69° (ENE) 19:35:09 437.485
CUTE-I 25 Jul 19:28:09 19:33:10 39° 263° (W) 19:38:13 437.470
DOVE 4 25 Jul 19:38:06 19:40:43 14° 276° (W) 19:43:24 437.250
BEESAT 2 25 Jul 19:42:17 19:43:57 12° 17° (NNE) 19:45:37 435.950
XW-2D 25 Jul 19:50:53 19:52:50 14° 271° (W) 19:54:49 145.860 - 145.880
XW-2A 25 Jul 19:54:42 19:58:05 78° 74° (ENE) 20:01:27 145.665 - 145.685
YUBILEINY 25 Jul 19:58:07 20:06:59 86° 279° (W) 20:15:54 435.215
UWE-3 25 Jul 19:58:57 20:03:17 46° 70° (ENE) 20:07:32 435.000/436.395/437.385
XW-2B 25 Jul 20:01:54 20:03:02 11° 272° (W) 20:04:10 145.730 - 145.750
AAUSAT CUBESAT 2 25 Jul 20:08:41 20:12:40 52° 71° (ENE) 20:16:43 437.432
ZACube-1 25 Jul 20:11:27 20:15:28 35° 68° (ENE) 20:19:25 437.345
STRAND 1 25 Jul 20:12:25 20:16:57 31° 95° (E) 20:21:27 437.568
AO-85 25 Jul 20:15:01 20:18:32 27° 36° (NE) 20:22:12 145.980
KKS-1 25 Jul 20:24:20 20:25:50 12° 307° (NW) 20:27:20 437.445
HO-68 25 Jul 20:35:56 20:42:39 42° 263° (W) 20:49:24 435.675
Oscar 11 25 Jul 20:36:12 20:40:16 42° 69° (ENE) 20:44:20 .
BEESAT 3 25 Jul 20:37:40 20:41:23 35° 40° (NE) 20:45:04 437.485
CUBEBUG 2 25 Jul 20:38:38 20:43:11 49° 261° (W) 20:47:38 437.445
AO-73 25 Jul 20:50:47 20:55:11 76° 73° (ENE) 20:59:29 145.935
STARS 25 Jul 20:51:39 20:53:37 13° 305° (NW) 20:55:35 437.465
CUTE 1.7 + AOD 2 25 Jul 20:53:20 20:56:23 19° 269° (W) 20:59:28 437.475
RS-15 25 Jul 20:56:40 21:08:06 40° 354° (N) 21:19:18 29.354- 29.394
SEEDS 25 Jul 21:03:48 21:07:05 22° 268° (W) 21:10:24 437.485
DELFI C3 25 Jul 21:05:16 21:08:25 23° 64° (ENE) 21:11:35 145.870
BEESAT 2 25 Jul 21:19:08 21:22:53 33° 40° (NE) 21:26:36 435.950
EO-88 25 Jul 21:21:29 21:24:14 21° 65° (ENE) 21:27:00 145.990 - 145.960
ISS 25 Jul 21:22:21 21:24:48 20° 142° (SE) 21:27:16 437.550
Tancredo 1 25 Jul 21:33:31 21:36:21 46° 153° (SSE) 21:39:12 437.200
UWE-3 25 Jul 21:36:18 21:39:56 23° 267° (W) 21:43:31 435.000/436.395/437.385
AAUSAT CUBESAT 2 25 Jul 21:45:41 21:48:27 17° 270° (W) 21:51:15 437.432
FO-29 25 Jul 21:45:56 21:51:30 24° 85° (E) 21:56:35 435.910
ZACube-1 25 Jul 21:47:58 21:51:48 28° 265° (W) 21:55:35 437.345
STRAND 1 25 Jul 21:51:27 21:56:16 42° 294° (WNW) 22:01:02 437.568
AO-85 25 Jul 21:55:05 21:59:10 56° 235° (SW) 22:03:30 145.980
YUBILEINY 25 Jul 21:58:21 22:05:13 24° 304° (NW) 22:12:08 435.215
nSIGHT-1 25 Jul 22:03:02 22:06:05 38° 149° (SSE) 22:09:07 .
Oscar 11 25 Jul 22:13:09 22:16:35 23° 268° (W) 22:20:02 .
BEESAT 3 25 Jul 22:15:17 22:18:59 35° 240° (WSW) 22:22:36 437.485
AO-73 25 Jul 22:29:44 22:31:55 13° 272° (W) 22:34:04 145.935
PRISM 25 Jul 22:31:23 22:34:10 17° 91° (E) 22:36:57 437.425
DELFI C3 25 Jul 22:39:19 22:43:00 37° 263° (W) 22:46:44 145.870
UNISAT 6 25 Jul 22:48:33 22:52:26 31° 95° (E) 22:56:14 437.425
EO-88 25 Jul 22:54:20 22:57:43 36° 263° (W) 23:01:07 145.990 - 145.960
LO-87 25 Jul 22:55:44 22:59:02 34° 69° (ENE) 23:02:22 145.935 - 145.965
BEESAT 2 25 Jul 22:56:53 23:00:41 38° 239° (WSW) 23:04:26 435.950
ISS 25 Jul 22:57:40 23:00:55 82° 160° (SSE) 23:04:11 437.550
Tancredo 1 25 Jul 23:08:49 23:11:44 60° 352° (N) 23:14:39 437.200
RS-15 25 Jul 23:12:07 23:24:03 50° 28° (NNE) 23:35:27 29.354- 29.394
O/OREOS (USA 219) 25 Jul 23:14:15 23:15:27 11° 36° (NE) 23:16:40 437.305
SPROUT 25 Jul 23:17:54 23:20:07 14° 57° (ENE) 23:22:21 437.525
M-CUBED/EXP-1 PRIME 25 Jul 23:22:39 23:26:18 23° 98° (E) 23:29:59 437.505
ESTCUBE 1 25 Jul 23:25:33 23:29:52 50° 70° (ENE) 23:34:14 437.505/2401.250
FO-29 25 Jul 23:30:06 23:37:27 79° 289° (WNW) 23:43:54 435.910
TIGRISAT 25 Jul 23:32:18 23:36:40 77° 103° (ESE) 23:40:56 435.000
nSIGHT-1 25 Jul 23:39:09 23:42:23 68° 349° (NNW) 23:45:36 .
PRISM 26 Jul 00:05:41 00:09:47 55° 289° (WNW) 00:13:52 437.425
VELOX 1 26 Jul 00:07:37 00:11:37 34° 66° (ENE) 00:15:39 145.980
DX 1 26 Jul 00:11:58 00:14:28 15° 57° (ENE) 00:16:58 434.975-435.025
UNISAT 6 26 Jul 00:25:16 00:29:09 32° 294° (WNW) 00:32:57 437.425
LO-87 26 Jul 00:29:45 00:32:34 21° 267° (W) 00:35:24 145.935 - 145.965
DUCHIFAT 1 26 Jul 00:33:46 00:36:53 20° 92° (E) 00:39:59 145.980
ISS 26 Jul 00:34:18 00:37:32 57° 0° (N) 00:40:45 437.550
POLYITAN 1 26 Jul 00:37:21 00:40:56 26° 94° (E) 00:44:29 437.675
Tancredo 1 26 Jul 00:44:22 00:47:19 67° 12° (NNE) 00:50:15 437.200
QB50P2 26 Jul 00:50:13 00:54:11 38° 98° (E) 00:58:07 145.880/145.840
SPROUT 26 Jul 00:51:06 00:55:25 84° 256° (WSW) 00:59:45 437.525
UKube-1 26 Jul 00:51:32 00:54:56 23° 62° (ENE) 00:58:22 .
O/OREOS (USA 219) 26 Jul 00:51:36 00:55:59 50° 58° (ENE) 01:00:22 437.305
M-CUBED/EXP-1 PRIME 26 Jul 00:56:28 01:00:56 54° 295° (WNW) 01:05:28 437.505
AIST 2D 26 Jul 00:57:32 01:01:02 79° 283° (WNW) 01:04:31 435.315
BUGSAT 1 26 Jul 01:00:13 01:01:34 11° 87° (E) 01:02:54 437.445
NANOSAT C BR1 26 Jul 01:01:18 01:05:18 41° 98° (E) 01:09:15 145.865
EO-79 26 Jul 01:01:51 01:05:56 46° 99° (E) 01:09:59 145.935-145.965
ESTCUBE 1 26 Jul 01:03:34 01:06:58 21° 268° (W) 01:10:22 437.505/2401.250
TIGRISAT 26 Jul 01:10:20 01:12:47 15° 303° (WNW) 01:15:13 435.000
nSIGHT-1 26 Jul 01:15:46 01:18:59 64° 9° (N) 01:22:12 .
FO-29 26 Jul 01:16:09 01:21:18 21° 311° (NW) 01:26:06 435.910
50 SAT 26 Jul 01:22:46 01:26:10 84° 75° (ENE) 01:29:37 437.505
RS-15 26 Jul 01:25:26 01:37:37 78° 236° (SW) 01:49:09 29.354- 29.394
VELOX 1 26 Jul 01:44:10 01:48:05 31° 264° (W) 01:52:03 145.980
DX 1 26 Jul 01:45:41 01:50:04 80° 256° (WSW) 01:54:29 434.975-435.025
MOZHAYETS 4 26 Jul 02:04:05 02:05:58 12° 55° (NE) 02:07:53
DUCHIFAT 1 26 Jul 02:08:46 02:12:48 46° 290° (WNW) 02:16:48 145.980
ISS 26 Jul 02:10:52 02:14:08 83° 199° (SSW) 02:17:24 437.550
Oscar 19 26 Jul 02:11:23 02:15:51 28° 94° (E) 02:20:16 437.125/150
POLYITAN 1 26 Jul 02:12:57 02:16:48 35° 293° (WNW) 02:20:37 437.675
Tancredo 1 26 Jul 02:19:52 02:22:36 35° 210° (SSW) 02:25:20 437.200
QB50P2 26 Jul 02:26:20 02:29:49 25° 296° (WNW) 02:33:17 145.880/145.840
UKube-1 26 Jul 02:26:34 02:30:43 46° 260° (W) 02:34:54 .
SPROUT 26 Jul 02:31:32 02:32:01 10° 274° (W) 02:32:30 437.525
O/OREOS (USA 219) 26 Jul 02:31:37 02:35:05 22° 257° (WSW) 02:38:33 437.305
BUGSAT 1 26 Jul 02:33:23 02:37:31 81° 286° (WNW) 02:41:35 437.445
M-CUBED/EXP-1 PRIME 26 Jul 02:33:24 02:34:27 11° 314° (NW) 02:35:30 437.505
NANOSAT C BR1 26 Jul 02:37:26 02:40:49 24° 297° (WNW) 02:44:10 145.865
EO-79 26 Jul 02:38:11 02:41:26 22° 298° (WNW) 02:44:40 145.935-145.965
Gurwin Techsat 1B 26 Jul 02:45:15 02:50:10 37° 96° (E) 02:55:03 435.225
BEESAT 26 Jul 02:46:27 02:50:50 38° 66° (ENE) 02:55:15 436.000
nSIGHT-1 26 Jul 02:52:14 02:55:22 46° 208° (SSW) 02:58:29 .
ITUPSAT 1 26 Jul 03:00:08 03:04:44 48° 68° (ENE) 03:09:20 437.325
MOZHAYETS 4 26 Jul 03:37:49 03:42:23 78° 74° (ENE) 03:46:58
RS-15 26 Jul 03:39:22 03:48:01 24° 261° (W) 03:56:24 29.354- 29.394
ISS 26 Jul 03:47:46 03:50:17 20° 218° (SW) 03:52:46 437.550
Oscar 19 26 Jul 03:50:26 03:55:21 47° 293° (WNW) 04:00:17 437.125/150
ITAMSAT 1 26 Jul 04:05:18 04:09:35 25° 93° (E) 04:13:49 435.822/435.867
YUBILEINY 26 Jul 04:07:21 04:12:41 17° 48° (NE) 04:17:59 435.215
BUGSAT 1 26 Jul 04:10:58 04:12:09 11° 305° (NW) 04:13:21 437.445
KKS-1 26 Jul 04:12:04 04:15:42 25° 62° (ENE) 04:19:20 437.445
CUBESAT XI-V 26 Jul 04:15:30 04:19:48 41° 68° (ENE) 04:24:08 437.345
AO-7 26 Jul 04:19:57 04:27:42 39° 97° (E) 04:35:21 .
BEESAT 26 Jul 04:24:26 04:28:40 31° 264° (W) 04:32:56 436.000
Gurwin Techsat 1B 26 Jul 04:25:14 04:30:08 38° 295° (WNW) 04:35:00 435.225
ITUPSAT 1 26 Jul 04:38:55 04:42:48 24° 267° (W) 04:46:43 437.325
STARS 26 Jul 04:39:05 04:42:24 21° 60° (ENE) 04:45:43 437.465
MOZHAYETS 4 26 Jul 05:17:40 05:20:06 14° 272° (W) 05:22:33
PCSat 26 Jul 05:28:30 05:33:35 43° 115° (ESE) 05:38:41 145.827
ITAMSAT 1 26 Jul 05:44:17 05:49:22 53° 292° (WNW) 05:54:24 435.822/435.867
KKS-1 26 Jul 05:47:43 05:52:01 45° 261° (W) 05:56:22 437.445
DOVE 4 26 Jul 05:52:25 05:56:28 22° 89° (E) 06:00:24 437.250
CUBESAT XI-V 26 Jul 05:53:27 05:57:19 27° 267° (W) 06:01:14 437.345
STRAND 1 26 Jul 05:56:47 05:59:08 13° 52° (NE) 06:01:28 437.568
YUBILEINY 26 Jul 06:03:01 06:11:44 61° 74° (ENE) 06:20:20 435.215
AO-7 26 Jul 06:12:38 06:20:50 60° 298° (WNW) 06:28:57 .
STARS 26 Jul 06:14:02 06:18:23 55° 259° (W) 06:22:47 437.465
KAITUO 1B 26 Jul 06:31:22 06:32:28 11° 88° (E) 06:33:34 145.475/437.950
LilacSat-2 26 Jul 06:35:44 06:38:18 17° 91° (E) 06:40:53 437.200
SO-50 26 Jul 06:41:10 06:45:14 33° 119° (ESE) 06:49:17 436.795
XW-2F 26 Jul 06:47:37 06:50:29 20° 93° (E) 06:53:21 145.980 - 146.000
PCSat 26 Jul 07:11:53 07:17:02 42° 316° (NW) 07:22:12 145.827
XW-2D 26 Jul 07:16:44 07:20:22 45° 99° (E) 07:24:00 145.860 - 145.880
ITAMSAT 1 26 Jul 07:26:31 07:27:43 11° 312° (NW) 07:28:55 435.822/435.867
XW-2B 26 Jul 07:26:47 07:30:30 57° 100° (E) 07:34:14 145.730 - 145.750
DOVE 4 26 Jul 07:29:19 07:34:35 63° 288° (WNW) 07:39:38 437.250
STRAND 1 26 Jul 07:32:18 07:37:24 68° 71° (ENE) 07:42:32 437.568
CUTE-I 26 Jul 07:40:07 07:45:27 60° 101° (ESE) 07:50:44 437.470
XW-2C 26 Jul 07:44:12 07:47:59 89° 261° (W) 07:51:45 145.795 - 145.815
NUDT-PHONESAT 26 Jul 07:46:56 07:50:38 74° 102° (ESE) 07:54:18 437.300
HO-68 26 Jul 07:58:17 08:04:39 33° 94° (E) 08:10:58 435.675
YUBILEINY 26 Jul 08:00:23 08:08:06 36° 277° (W) 08:15:47 435.215
FO-29 26 Jul 08:02:15 08:08:03 24° 51° (NE) 08:13:50 435.910
KAITUO 1B 26 Jul 08:03:13 08:06:55 70° 286° (WNW) 08:10:38 145.475/437.950
AO-7 26 Jul 08:06:29 08:12:00 20° 322° (NW) 08:17:30 .
LilacSat-2 26 Jul 08:09:12 08:12:49 45° 289° (WNW) 08:16:27 437.200
XW-2F 26 Jul 08:21:17 08:24:45 36° 291° (WNW) 08:28:13 145.980 - 146.000
SO-50 26 Jul 08:21:17 08:25:37 43° 319° (NW) 08:29:56 436.795
CUBEBUG 2 26 Jul 08:25:26 08:28:59 25° 93° (E) 08:32:26 437.445
CUTE 1.7 + AOD 2 26 Jul 08:32:07 08:36:17 53° 100° (E) 08:40:27 437.475
SEEDS 26 Jul 08:41:53 08:45:56 44° 98° (E) 08:49:59 437.485
XW-2A 26 Jul 08:44:49 08:48:01 42° 99° (E) 08:51:12 145.665 - 145.685
XW-2D 26 Jul 08:51:39 08:54:16 18° 297° (WNW) 08:56:53 145.860 - 145.880
PCSat 26 Jul 08:58:37 09:01:55 16° 340° (NNW) 09:05:12 145.827
TIGRISAT 26 Jul 09:00:05 09:03:00 17° 59° (ENE) 09:05:53 435.000
XW-2B 26 Jul 09:02:04 09:04:18 15° 299° (WNW) 09:06:33 145.730 - 145.750
DOVE 4 26 Jul 09:09:03 09:11:12 13° 308° (NW) 09:13:21 437.250
STRAND 1 26 Jul 09:13:25 09:17:05 19° 270° (W) 09:20:46 437.568
UWE-3 26 Jul 09:20:20 09:24:28 53° 100° (E) 09:28:31 435.000/436.395/437.385
XW-2C 26 Jul 09:20:48 09:21:33 10° 302° (WNW) 09:22:15 145.795 - 145.815
CUTE-I 26 Jul 09:20:49 09:25:07 25° 301° (WNW) 09:29:25 437.470
AAUSAT CUBESAT 2 26 Jul 09:21:27 09:25:34 54° 101° (E) 09:29:40 437.432
NUDT-PHONESAT 26 Jul 09:22:33 09:23:59 12° 301° (WNW) 09:25:25 437.300
PRISM 26 Jul 09:24:31 09:27:44 23° 62° (ENE) 09:30:59 437.425
ZACube-1 26 Jul 09:31:07 09:35:03 39° 98° (E) 09:38:55 437.345
FO-29 26 Jul 09:44:13 09:51:58 78° 71° (ENE) 09:59:50 435.910
HO-68 26 Jul 09:45:45 09:52:47 60° 295° (WNW) 09:59:46 435.675
UNISAT 6 26 Jul 09:50:54 09:55:20 47° 70° (ENE) 09:59:42 437.425
Oscar 11 26 Jul 09:54:40 09:58:52 48° 99° (E) 10:03:03 .
CUBEBUG 2 26 Jul 10:01:46 10:05:44 37° 292° (WNW) 10:09:35 437.445
SO-50 26 Jul 10:04:27 10:07:11 16° 342° (NNW) 10:09:57 436.795
CUTE 1.7 + AOD 2 26 Jul 10:08:44 10:11:47 20° 298° (WNW) 10:14:50 437.475
AO-73 26 Jul 10:10:23 10:14:34 89° 118° (ESE) 10:18:41 145.935
DELFI C3 26 Jul 10:12:05 10:15:06 20° 92° (E) 10:18:07 145.870
M-CUBED/EXP-1 PRIME 26 Jul 10:12:09 10:15:48 47° 63° (ENE) 10:19:45 437.505
SEEDS 26 Jul 10:18:05 10:21:24 23° 296° (WNW) 10:24:42 437.485
XW-2A 26 Jul 10:18:26 10:20:28 15° 297° (WNW) 10:22:29 145.665 - 145.685
EO-88 26 Jul 10:19:30 10:21:32 14° 90° (E) 10:23:34 145.990 - 145.960
TIGRISAT 26 Jul 10:34:33 10:39:11 75° 257° (WSW) 10:43:44 435.000
PCSat 26 Jul 10:45:18 10:47:41 13° 7° (N) 10:50:04 145.827
UWE-3 26 Jul 10:57:36 11:00:34 19° 299° (WNW) 11:03:31 435.000/436.395/437.385
AAUSAT CUBESAT 2 26 Jul 10:57:43 11:00:40 19° 298° (WNW) 11:03:36 437.432
PRISM 26 Jul 10:58:52 11:02:47 43° 261° (W) 11:06:45 437.425
ZACube-1 26 Jul 11:07:48 11:11:09 24° 296° (WNW) 11:14:30 437.345
UNISAT 6 26 Jul 11:28:35 11:32:15 23° 267° (W) 11:35:54 437.425
DUCHIFAT 1 26 Jul 11:29:20 11:32:53 27° 64° (ENE) 11:36:27 145.980
FO-29 26 Jul 11:31:12 11:37:39 28° 272° (W) 11:44:14 435.910
Oscar 11 26 Jul 11:31:25 11:34:44 22° 298° (WNW) 11:38:02 .
POLYITAN 1 26 Jul 11:33:40 11:37:32 35° 67° (ENE) 11:41:26 437.675
HO-68 26 Jul 11:34:56 11:39:10 17° 317° (NW) 11:43:24 435.675
AIST 2D 26 Jul 11:35:33 11:39:00 71° 76° (ENE) 11:42:29 435.315
DELFI C3 26 Jul 11:46:15 11:50:04 42° 290° (WNW) 11:53:52 145.870
QB50P2 26 Jul 11:46:30 11:50:38 50° 70° (ENE) 11:54:46 145.880/145.840
SO-50 26 Jul 11:47:28 11:49:30 13° 7° (N) 11:51:31 436.795
M-CUBED/EXP-1 PRIME 26 Jul 11:47:50 11:50:32 19° 264° (W) 11:53:25 437.505
AO-73 26 Jul 11:48:26 11:50:09 12° 303° (WNW) 11:51:52 145.935
LO-87 26 Jul 11:51:46 11:54:41 23° 94° (E) 11:57:35 145.935 - 145.965
EO-88 26 Jul 11:51:58 11:55:31 51° 288° (WNW) 11:59:03 145.990 - 145.960
BUGSAT 1 26 Jul 11:53:16 11:55:57 17° 59° (ENE) 11:58:37 437.445
NO-84 26 Jul 11:55:39 11:58:35 41° 142° (SE) 12:01:46 435.350 FM
NANOSAT C BR1 26 Jul 11:57:02 12:01:10 53° 71° (ENE) 12:05:19 145.865
Oscar 19 26 Jul 11:57:02 11:59:00 12° 50° (NE) 12:00:58 437.125/150
EO-79 26 Jul 11:57:55 12:02:07 60° 72° (ENE) 12:06:20 145.935-145.965
BEESAT 3 26 Jul 12:10:37 12:12:15 12° 110° (ESE) 12:13:54 437.485
AO-85 26 Jul 12:15:44 12:17:38 13° 112° (ESE) 12:19:31 145.980
PCSat 26 Jul 12:28:42 12:33:07 24° 33° (NNE) 12:37:31 145.827
Gurwin Techsat 1B 26 Jul 12:33:22 12:36:40 17° 54° (NE) 12:39:59 435.225
SPROUT 26 Jul 12:34:08 12:35:55 12° 87° (E) 12:37:43 437.525
ESTCUBE 1 26 Jul 12:49:57 12:54:27 60° 101° (E) 12:58:56 437.505/2401.250
BEESAT 2 26 Jul 12:54:00 12:55:31 12° 110° (ESE) 12:57:04 435.950
DUCHIFAT 1 26 Jul 13:04:30 13:08:26 36° 263° (W) 13:12:22 145.980
POLYITAN 1 26 Jul 13:09:43 13:13:23 27° 265° (W) 13:17:03 437.675
QB50P2 26 Jul 13:23:36 13:26:42 19° 269° (W) 13:29:48 145.880/145.840
LO-87 26 Jul 13:24:57 13:28:10 30° 292° (WNW) 13:31:20 145.935 - 145.965
BUGSAT 1 26 Jul 13:26:38 13:30:50 67° 257° (WSW) 13:35:04 437.445
SO-50 26 Jul 13:27:45 13:31:30 25° 31° (NNE) 13:35:16 436.795
VELOX 1 26 Jul 13:29:05 13:33:14 36° 97° (E) 13:37:21 145.980
DX 1 26 Jul 13:31:02 13:33:08 13° 88° (E) 13:35:12 434.975-435.025
Oscar 19 26 Jul 13:32:19 13:37:21 63° 71° (ENE) 13:42:27 437.125/150
NO-84 26 Jul 13:32:55 13:36:02 45° 343° (NNW) 13:39:26 435.350 FM
AO-7 26 Jul 13:33:49 13:40:06 24° 43° (NE) 13:46:22 .
NANOSAT C BR1 26 Jul 13:34:16 13:37:12 18° 269° (W) 13:40:10 145.865
EO-79 26 Jul 13:35:34 13:38:17 16° 270° (W) 13:40:59 145.935-145.965
BEESAT 3 26 Jul 13:45:10 13:49:11 90° 122° (ESE) 13:53:16 437.485
ITAMSAT 1 26 Jul 13:52:01 13:53:54 12° 49° (NE) 13:55:46 435.822/435.867
AO-85 26 Jul 13:53:30 13:57:27 79° 311° (NW) 14:01:24 145.980
SPROUT 26 Jul 14:08:06 14:12:25 80° 285° (WNW) 14:16:39 437.525
UKube-1 26 Jul 14:09:28 14:12:47 21° 93° (E) 14:16:05 .
Gurwin Techsat 1B 26 Jul 14:10:34 14:15:53 86° 74° (ENE) 14:21:15 435.225
PCSat 26 Jul 14:11:47 14:17:16 88° 52° (NE) 14:22:42 145.827
50 SAT 26 Jul 14:13:03 14:16:23 43° 99° (E) 14:19:40 437.505
ESTCUBE 1 26 Jul 14:27:36 14:30:51 20° 300° (WNW) 14:34:06 437.505/2401.250
BEESAT 2 26 Jul 14:28:36 14:32:37 88° 126° (SE) 14:36:41 435.950
DX 1 26 Jul 15:05:27 15:09:52 79° 287° (WNW) 15:14:15 434.975-435.025
VELOX 1 26 Jul 15:05:42 15:09:35 30° 296° (WNW) 15:13:27 145.980
SO-50 26 Jul 15:07:54 15:12:27 78° 232° (SW) 15:17:02 436.795
O/OREOS (USA 219) 26 Jul 15:09:00 15:12:35 24° 104° (ESE) 15:16:11 437.305
NO-84 26 Jul 15:10:52 15:14:01 33° 4° (N) 15:17:27 435.350 FM
Oscar 19 26 Jul 15:13:20 15:17:07 21° 269° (W) 15:20:57 437.125/150
AO-7 26 Jul 15:23:19 15:31:39 76° 66° (ENE) 15:40:02 .
BEESAT 3 26 Jul 15:24:18 15:27:19 20° 330° (NNW) 15:30:21 437.485
ITAMSAT 1 26 Jul 15:27:12 15:32:19 59° 69° (ENE) 15:37:29 435.822/435.867
MOZHAYETS 4 26 Jul 15:29:54 15:32:08 13° 87° (E) 15:34:19
AO-85 26 Jul 15:35:46 15:38:28 17° 332° (NNW) 15:41:11 145.980
UKube-1 26 Jul 15:44:52 15:49:04 48° 291° (WNW) 15:53:13 .
SPROUT 26 Jul 15:46:05 15:47:35 12° 305° (NW) 15:49:04 437.525
50 SAT 26 Jul 15:46:36 15:48:49 16° 297° (WNW) 15:51:00 437.505
Gurwin Techsat 1B 26 Jul 15:53:24 15:56:33 16° 273° (W) 15:59:43 435.225
PCSat 26 Jul 15:56:29 15:59:57 17° 255° (WSW) 16:03:23 145.827
BEESAT 2 26 Jul 16:07:52 16:10:55 20° 330° (NNW) 16:13:59 435.950
